CAPE
590 844 934 705 724 816 1009 896 627 746 1037 1229 1350 1367 1390 1393 1344 1174 1394 992 996 1331 1616 1954 1633 922 1024 1148 1013 832 547 337 345 382 266 278 347 785 996 1098 902 1071 1221
501 751 1145 956 1375 1368 1149 1005 753 752 1342 1348 1253 1329 1372 1414 1014 877 481 351 443 1224 1631 1581 1538 1323 1617 1593 962 535 165 312 9 115 203 2 22 124 325 633 949 814 946
537 759 1324 1328 1512 1700 1507 1243 1056 1110 1409 1457 1631 1106 1198 898 590 413 315 266 327 506 781 824 863 1022 1331 1199 1108 808 360 345 288 152 3 13 1 77 1 128 712 993 1175
587 811 1167 1603 1662 1851 1429 786 1111 1288 1558 1838 1755 1028 927 772 659 406 323 245 592 692 714 675 486 791 935 806 1017 909 135 233 477 189 41 0 22 10 6 6 611 817 700
1192 1367 1594 1677 1716 1859 1019 918 1392 1302 1484 1537 1531 1138 876 676 486 351 329 525 496 376 482 327 361 561 686 759 758 778 759 607 598 409 220 25 16 2 1 4 511 390 540
1257 1372 1570 1624 1880 1765 1685 1756 1605 1719 1512 1728 1433 1045 817 355 583 417 357 494 273 98 134 142 203 506 514 520 565 650 740 673 537 324 305 200 90 98 49 19 116 144 203
1411 1473 1758 1698 2047 1723 1656 1673 1476 1552 1456 1792 1367 1310 1031 764 357 282 393 435 96 0 1 2 0 0 0 0 0 0 0 157 524 374 168 168 53 103 74 32 70 117 140
1273 1511 1484 1526 1403 1351 1657 1632 1510 1553 1114 1235 1213 1202 828 660 171 166 215 197 16 0 0 0 0 0 0 0 0 0 0 0 171 442 160 68 42 77 66 93 173 128 279
1162 1506 1392 1257 1257 1182 1325 1279 1482 1239 1389 1434 1710 1336 342 47 550 84 106 30 83 12 1 0 0 0 0 0 0 0 0 0 0 23 213 5 78 77 55 136 117 165 114
1175 1432 1273 1341 1330 1294 1336 1740 1477 1292 1856 1436 1514 1379 922 754 5 133 25 72 44 14 0 0 0 0 0 0 0 0 0 0 0 0 7 125 88 105 67 98 116 134 97
1054 1169 1429 1270 1361 1338 1623 1893 1426 1501 1950 1650 999 1196 1011 163 70 48 0 17 0 0 0 0 0 0 0 0 8 1 1 0 0 0 0 0 129 132 80 87 115 167 172
1162 1652 1412 1293 1394 1703 2132 2258 1824 1812 1435 510 192 179 83 22 0 0 0 0 0 0 0 0 0 0 0 2 11 9 0 0 0 0 0 0 1 137 132 127 192 245 255
1473 1715 1614 1618 2043 2120 2492 2283 1800 1412 687 592 502 205 260 36 12 0 0 0 0 0 0 0 0 0 0 0 26 2 0 0 0 0 0 0 0 2 72 92 202 182 129
1564 1689 1788 1819 2325 2569 2567 2123 1486 984 800 184 2 0 0 0 0 0 0 0 0 0 0 0 0 0 0 0 4 0 8 0 1 0 0 0 0 1 8 36 75 200 255
1565 1686 2072 2179 2564 2452 2407 1914 1483 960 0 0 0 0 0 0 0 0 0 0 0 0 0 0 0 0 0 9 26 13 9 4 3 1 0 0 2 0 1 1 0 53 144
1470 1895 2113 2489 2575 2637 2485 1789 765 0 0 0 0 0 0 0 0 0 0 0 0 0 0 0 0 0 0 28 6 9 0 4 0 0 2 0 0 0 1 2 1 0 10
1447 1642 1995 2701 2616 2804 2570 1769 424 5 0 0 0 0 0 0 0 0 0 0 0 0 0 0 0 0 7 32 23 13 0 0 0 0 0 0 0 0 0 0 0 0 0
1215 1307 1379 1862 2835 2940 2830 1909 552 0 0 0 0 0 0 0 0 0 0 0 0 0 0 0 0 0 4 0 4 29 0 0 1 0 0 0 0 0 0 0 0 0 0
754 986 1021 1158 1953 2797 2946 1789 463 45 0 0 0 0 0 0 0 0 0 0 0 0 0 0 0 0 0 0 0 26 3 3 0 0 0 0 1 2 0 0 0 0 0
265 751 987 1881 2481 2946 2996 1685 372 12 0 0 0 0 0 0 0 0 0 0 0 0 0 0 0 0 0 1 7 14 25 0 0 1 0 1 1 1 3 0 0 0 0
217 615 1489 2437 2727 3158 2901 1485 145 0 0 0 0 0 0 0 0 0 0 0 0 0 0 0 0 0 1 2 3 2 3 1 1 0 2 2 2 9 4 1 1 0 0
491 823 1796 2541 2695 2891 2043 994 147 0 0 0 0 0 0 0 0 0 0 0 0 0 0 0 0 1 3 3 1 5 7 11 1 0 1 1 0 3 1 4 7 0 0
1241 1010 1867 2650 2787 3076 1437 622 70 0 0 0 0 0 0 0 0 0 0 0 0 0 0 0 0 0 1 3 1 8 2 6 1 2 1 1 3 0 4 0 3 2 0
1543 1587 2016 2562 2954 3037 994 300 25 0 0 0 0 0 0 0 0 0 0 0 0 0 0 0 0 1 3 3 1 4 6 3 1 1 1 1 0 2 1 0 0 1 0
1748 1946 2310 2617 2794 1667 467 124 19 0 0 0 0 0 0 0 0 0 0 0 0 0 0 0 0 0 0 1 2 2 3 4 2 2 1 0 0 4 2 1 3 0 0
1684 2145 2380 2839 2623 1478 95 38 23 0 0 0 0 0 0 0 0 0 0 0 0 0 0 0 0 1 3 1 1 2 2 3 4 2 2 0 1 0 1 1 3 3 6
CIN
-71 -68 -69 -81 -90 -81 -74 -80 -91 -78 -61 -50 -50 -55 -51 -50 -51 -65 -39 -125 -122 -75 -47 -14 -26 -45 -32 -50 -33 -23 -7 -1 -2 -2 -16 -8 -8 0 -1 -2 -8 -3 -1
-84 -69 -48 -62 -57 -58 -66 -77 -99 -91 -35 -33 -37 -46 -62 -51 -93 -103 -123 -140 -143 -74 -36 -26 -6 -19 -21 -4 -27 -116 -57 -14 -51 -46 -38 -6 -21 -18 -13 0 -3 -7 -7
-76 -71 -44 -37 -38 -53 -56 -45 -48 -42 -28 -21 -4 -59 -63 -100 -124 -148 -143 -127 -113 -103 -70 -46 -44 -43 -45 -38 -37 -33 -30 -15 -33 -5 -47 -115 -9 -72 -23 -46 0 -3 -2
-82 -62 -18 -19 -30 -26 -33 -54 -42 -28 -20 -1 -6 -48 -54 -77 -87 -103 -99 -111 -51 -29 -27 -38 -68 -46 -54 -64 -4 -4 -127 -101 -12 -17 -66 0 -126 -8 -20 -15 0 -1 -4
-58 -49 -25 -19 -34 -26 -42 -54 -29 -34 -17 -17 -17 -33 -46 -63 -65 -46 -51 -38 -29 -30 -20 -59 -57 -54 -50 -47 -46 -18 -3 -10 0 0 -7 -46 -23 -24 -31 -4 0 0 -1
-45 -31 -26 -26 -33 -28 -19 -20 -24 -16 -17 -14 -22 -24 -12 -44 -16 -22 -22 -9 -32 -89 -74 -83 -62 -20 -40 -36 -25 -9 -3 -2 -8 -18 -2 -4 -7 -3 -22 -4 -3 0 -1
-39 -37 -22 -28 -28 -20 -25 -28 -35 -21 -8 -11 -13 -1 -2 -2 -6 -13 -5 -4 -100 0 -62 -77 0 -1 0 0 0 0 0 -21 0 0 -8 -103 -49 -3 -2 -17 -13 0 -14
-40 -30 -38 -32 -46 -37 -31 -19 -11 -12 -24 -18 -14 -4 0 -1 -75 -75 -58 -61 -176 0 0 0 0 0 0 0 0 0 0 0 0 0 -1 -27 -50 -9 -3 -17 -2 -4 -3
-52 -36 -36 -49 -61 -62 -32 -22 -11 -17 -10 -9 -5 -1 -20 -42 -1 -122 -136 -139 -168 -30 -50 0 0 0 0 0 0 0 0 0 0 -1 0 -1 -37 -48 -24 -2 -5 -1 -28
-55 -40 -51 -57 -79 -70 -38 -15 -13 -21 -11 -4 -1 -1 -3 0 -47 -112 -215 -170 -234 -17 0 0 0 0 0 0 0 0 0 0 0 0 -2 0 -7 -29 -21 -10 0 -16 -36
-74 -56 -44 -50 -55 -44 -32 -21 -15 -11 -7 -1 -10 0 0 -133 -193 -192 0 -200 0 0 0 0 0 0 0 0 0 -1 0 0 0 0 0 0 -9 -3 -23 -14 -10 -11 -2
-48 -38 -43 -46 -48 -29 -17 -13 -19 -18 -18 -96 -198 -192 -235 -160 0 0 0 0 0 0 0 0 0 0 0 0 -1 -3 0 0 0 0 0 0 0 -6 0 -4 -5 -4 -5
-24 -23 -36 -32 -18 -26 -14 -16 -19 -31 -86 -96 -106 -189 -160 -370 -133 0 0 0 0 0 0 0 0 0 0 0 -1 -8 0 0 0 0 0 0 0 -5 -4 -17 0 0 -1
-25 -32 -32 -26 -17 -14 -12 -18 -30 -65 -90 -299 -57 0 0 0 0 0 0 0 0 0 0 0 0 0 0 0 -2 0 -5 0 0 0 0 0 0 0 -6 -9 -19 -1 0
-35 -28 -25 -19 -13 -5 -14 -21 -19 -93 0 0 0 0 0 0 0 0 0 0 0 0 0 0 0 0 0 0 -4 -2 -11 -45 0 0 0 0 0 0 0 0 -20 -26 -8
-44 -29 -21 -10 -11 -6 -16 -21 -189 0 0 0 0 0 0 0 0 0 0 0 0 0 0 0 0 0 0 0 -4 -9 0 -41 0 0 0 0 0 0 0 -1 0 0 -40
-53 -42 -26 -8 -9 -4 -11 -25 -320 -578 0 0 0 0 0 0 0 0 0 0 0 0 0 0 0 0 0 0 0 -2 0 0 0 0 0 0 0 0 0 0 0 0 0
-83 -78 -75 -39 -5 -3 -2 -19 -286 0 0 0 0 0 0 0 0 0 0 0 0 0 0 0 0 0 0 0 0 0 -1 0 -41 0 0 0 0 0 0 0 0 0 0
-180 -140 -144 -132 -38 -4 0 -55 -357 -613 0 0 0 0 0 0 0 0 0 0 0 0 0 0 0 0 0 0 0 -4 -14 -66 0 0 0 0 0 0 0 0 0 0 0
-263 -199 -160 -51 -22 -3 0 -81 -407 -638 0 0 0 0 0 0 0 0 0 0 0 0 0 0 0 0 -1 -1 0 -1 -1 0 0 0 0 0 0 0 0 0 0 0 0
-282 -237 -100 -32 -22 0 0 -135 -533 0 0 0 0 0 0 0 0 0 0 0 0 0 0 0 0 0 0 0 0 0 0 0 0 0 0 0 0 0 0 0 0 0 0
-237 -216 -87 -25 -32 -3 -66 -254 -536 0 0 0 0 0 0 0 0 0 0 0 0 0 0 0 0 0 0 0 0 0 -1 0 0 0 0 0 0 0 0 0 0 0 0
-143 -169 -90 -24 -27 0 -178 -376 -641 0 0 0 0 0 0 0 0 0 0 0 0 0 0 0 -1 0 0 0 0 0 -2 0 0 0 0 0 0 0 0 0 0 0 0
-111 -105 -82 -48 -5 -5 -296 -490 -770 0 0 0 0 0 0 0 0 0 0 0 0 0 0 0 0 0 0 0 -1 0 0 0 0 0 0 0 -1 0 0 0 0 0 0
-91 -86 -61 -49 -11 -155 -450 -587 -792 0 0 0 0 0 0 0 0 0 0 0 0 0 0 0 0 0 0 0 0 0 0 0 0 0 0 0 -1 0 0 0 0 0 0
-79 -55 -35 -8 -25 -164 -618 -728 -770 0 0 0 0 0 0 0 0 0 0 0 0 0 0 0 0 0 0 -1 0 0 0 0 0 0 0 0 0 0 0 0 0 0 0
Wind_Speed
8 7 6 6 6 6 6 7 7 5 3 4 5 5 7 8 9 13 14 19 18 15 15 15 13 12 18 21 24 27 21 22 22 21 25 25 33 43 38 36 35 31 26
9 7 6 6 7 8 7 6 5 5 3 3 7 8 9 14 21 18 18 20 24 24 21 18 16 17 25 29 34 33 22 23 21 27 37 37 36 45 39 44 40 36 31
9 7 7 7 8 7 6 6 6 3 5 10 14 19 22 24 22 23 22 23 23 24 25 22 21 20 21 25 23 21 21 19 14 18 19 28 30 44 45 47 48 38 32
10 9 8 6 7 6 6 5 3 1 4 12 18 20 22 23 24 24 24 25 25 24 24 26 26 26 23 24 21 18 18 20 16 16 13 14 12 18 19 40 50 42 34
11 10 8 7 6 6 5 4 4 6 2 8 17 18 22 23 25 24 24 26 26 26 23 25 27 27 27 27 26 24 24 24 19 21 16 17 10 11 16 42 42 37 28
11 10 9 8 7 7 6 6 7 9 11 15 17 18 20 22 23 24 24 25 26 26 25 24 24 27 28 29 28 28 27 26 25 23 20 15 7 18 29 29 25 21 22
12 10 8 8 7 6 5 7 11 15 14 16 17 17 19 22 23 23 23 25 26 26 25 26 26 25 26 28 30 29 28 26 24 22 21 22 19 19 17 26 25 16 18
11 10 9 7 6 5 7 10 15 15 16 17 18 18 18 18 23 24 24 24 24 24 24 25 25 26 25 26 29 30 28 25 22 21 19 18 17 19 19 19 23 21 16
12 11 8 6 5 7 8 12 16 14 15 19 19 20 20 20 18 20 23 22 22 22 22 23 24 26 26 27 28 29 28 24 22 20 18 16 15 17 16 20 24 24 21
12 10 8 5 6 9 11 14 16 16 18 20 20 20 20 19 19 18 20 20 20 20 21 21 22 24 26 26 27 29 27 25 22 19 18 16 13 11 17 20 17 18 21
11 18 7 6 14 16 15 17 17 19 19 21 21 19 19 20 20 18 18 18 20 19 19 19 19 21 24 25 25 26 27 25 22 19 16 15 13 11 7 8 10 8 9
14 18 21 14 15 16 17 17 20 22 22 23 22 21 21 20 21 20 19 18 17 18 17 17 18 19 21 23 23 24 26 25 23 19 16 14 13 10 8 6 3 5 6
13 19 21 14 14 15 16 18 21 21 21 21 20 21 20 21 20 19 19 18 17 17 17 16 17 17 18 21 21 22 24 25 23 20 17 15 13 11 9 10 4 4 6
13 19 9 11 10 11 15 17 18 19 19 20 21 22 21 22 22 21 19 19 19 17 17 16 17 17 17 20 21 21 23 24 22 21 18 15 12 10 9 7 11 12 7
11 11 11 11 8 9 14 15 15 17 20 21 22 22 22 23 23 23 23 21 20 20 21 20 20 18 18 18 19 20 22 23 22 21 17 15 12 10 9 10 11 12 14
11 10 11 11 9 9 13 14 16 18 19 20 21 22 23 22 22 22 23 22 21 20 21 21 20 18 18 17 18 19 20 20 21 20 17 14 12 10 9 9 10 10 12
12 9 10 12 11 9 12 13 15 17 18 20 21 22 23 23 24 24 25 24 24 22 21 22 19 18 17 16 17 17 17 19 19 18 17 15 13 11 10 9 9 11 12
12 13 13 14 11 10 10 12 15 16 16 18 21 22 24 24 25 25 26 26 26 25 23 24 24 21 18 17 16 15 15 16 16 16 16 15 14 12 12 11 10 10 12
10 12 13 15 12 10 10 12 14 15 16 18 20 22 23 23 25 26 27 28 28 28 27 28 27 22 18 18 15 15 17 14 14 14 15 16 14 13 13 12 11 10 13
7 9 9 9 9 8 10 12 13 14 16 18 19 21 22 24 25 26 28 29 30 30 30 31 29 26 22 19 17 16 17 17 16 15 14 14 14 14 14 11 10 10 11
4 3 5 2 5 7 9 10 12 14 15 18 20 21 22 24 25 26 28 29 30 32 31 33 32 29 26 23 22 19 19 19 17 17 17 13 12 13 12 10 8 8 11
5 3 3 1 4 6 8 9 11 13 14 16 18 20 21 23 25 28 30 32 31 32 33 34 34 31 28 25 22 21 20 19 17 15 17 14 12 11 11 10 8 6 9
7 5 4 2 1 5 6 9 11 12 13 15 16 18 19 20 22 25 27 30 31 32 32 32 35 32 28 26 23 20 21 20 19 15 17 12 12 12 12 11 13 12 11
8 6 5 4 2 6 5 8 10 12 13 14 15 16 18 19 19 21 23 25 27 29 30 32 34 32 30 26 23 21 19 20 19 22 18 17 13 13 15 15 18 17 15
9 7 6 5 2 6 4 8 9 10 11 13 14 15 17 18 18 20 22 23 24 26 28 31 34 34 32 32 29 25 23 19 21 21 21 21 16 14 13 18 24 21 17
10 8 6 6 4 2 5 8 7 8 10 11 13 14 15 16 16 18 20 22 23 23 23 26 30 32 33 33 33 31 28 25 22 21 17 22 16 15 14 11 17 19 18
Wind_Direction
184 215 214 208 200 209 230 257 243 215 191 118 99 90 84 89 76 58 48 28 21 13 3 357 352 348 336 322 311 306 294 283 278 282 279 281 269 252 251 248 244 242 241
182 200 215 230 249 262 264 259 239 188 140 108 78 77 76 60 31 41 36 24 14 11 11 9 6 351 332 317 309 307 302 319 329 304 287 281 268 257 251 244 241 239 238
189 200 214 231 253 242 240 252 255 174 109 76 64 55 45 28 31 29 29 24 20 16 15 19 16 12 4 349 338 332 353 340 347 327 317 300 278 247 256 248 235 237 236
188 193 200 220 240 206 196 230 210 211 97 69 53 45 39 35 29 29 28 24 24 25 28 28 26 20 28 18 18 10 354 349 348 343 340 327 293 249 240 250 235 232 232
182 183 189 194 199 167 157 151 113 84 77 70 50 50 42 36 31 33 34 32 32 31 38 38 34 21 17 10 353 346 341 339 348 333 343 331 20 278 247 240 224 226 222
173 176 187 190 176 145 125 99 80 72 67 57 53 57 50 44 41 39 38 37 33 35 41 43 37 25 13 5 355 347 335 329 320 305 253 243 31 276 247 239 225 215 213
169 165 175 174 163 141 109 83 68 57 58 54 53 58 55 47 42 41 39 37 36 39 43 41 35 29 18 12 358 345 334 326 315 303 298 248 238 267 258 228 231 224 212
173 160 149 150 146 129 89 69 56 55 53 51 51 50 49 50 40 38 39 40 40 43 44 42 38 31 27 20 8 353 337 323 309 310 310 301 226 224 238 240 229 226 211
155 140 146 141 130 101 82 62 54 57 52 51 52 48 45 43 47 42 39 40 42 44 44 45 38 32 27 21 14 6 344 334 322 309 309 312 287 221 233 231 229 228 230
166 177 209 185 123 94 74 58 56 58 56 49 51 52 51 50 48 45 42 40 43 42 43 46 42 33 28 26 22 7 352 343 331 315 308 314 299 290 240 221 212 212 213
203 33 154 147 76 68 63 56 58 55 57 50 52 55 56 52 49 46 41 41 40 41 44 46 47 40 32 28 22 20 8 353 338 322 306 300 302 282 287 250 228 203 186
63 19 328 76 74 67 62 59 58 55 53 53 56 57 56 53 46 45 41 42 39 41 44 47 48 46 38 34 32 29 15 4 349 327 316 300 295 296 282 267 227 196 169
114 357 328 81 84 73 70 67 62 60 61 61 61 59 59 54 52 49 44 45 42 41 43 47 46 50 46 36 32 31 24 8 355 343 330 317 302 294 284 258 237 191 190
154 345 99 109 113 95 81 76 75 74 76 70 66 62 60 54 53 51 49 45 41 42 41 40 43 45 47 35 28 33 26 20 12 355 337 330 319 297 287 277 250 238 217
131 87 130 149 159 117 91 89 89 81 74 68 66 64 60 58 55 53 49 51 45 39 36 40 36 43 43 42 39 31 24 18 11 3 355 341 327 311 293 276 263 249 237
140 89 80 176 191 125 98 93 82 75 72 68 67 64 59 58 56 53 51 50 49 44 39 39 38 43 43 51 48 42 33 30 18 9 359 350 341 326 305 284 269 259 247
161 133 130 187 178 142 101 93 83 79 73 66 62 60 55 54 51 50 50 49 45 46 41 39 42 44 48 56 56 51 37 22 15 7 358 350 340 323 308 290 277 263 254
164 168 174 192 179 177 111 89 77 73 76 65 58 54 52 53 50 50 49 47 47 45 44 39 39 44 53 54 56 57 54 35 18 3 350 339 327 320 300 288 280 271 257
173 174 180 188 181 151 114 80 74 74 70 61 58 53 54 53 51 51 49 47 45 45 44 41 39 47 53 54 57 59 55 67 47 17 345 327 316 310 302 292 286 278 257
181 174 165 154 148 112 82 72 70 69 64 57 55 54 57 55 55 53 50 48 46 45 44 41 40 43 49 53 57 58 60 67 79 62 25 330 294 292 300 293 283 275 254
214 197 159 76 70 74 61 65 60 62 61 56 53 58 59 59 57 55 51 49 47 43 45 41 40 43 47 54 56 63 70 73 83 91 84 8 301 299 303 291 281 273 247
255 256 193 131 36 85 52 77 60 63 62 61 61 65 65 65 61 56 53 51 49 47 46 42 40 44 50 54 60 64 70 75 91 102 114 57 303 293 295 286 268 262 240
272 252 240 201 5 18 74 91 66 64 65 67 69 72 73 69 65 61 57 53 53 50 48 45 42 46 50 52 57 64 68 77 82 104 111 342 281 275 292 281 244 237 237
266 261 242 210 299 339 101 94 77 59 65 77 81 80 74 72 69 65 60 56 55 52 50 47 46 49 52 55 60 62 70 78 84 65 77 87 296 265 251 242 224 223 226
267 261 261 235 238 320 110 111 80 69 71 78 82 83 77 75 74 68 61 57 57 56 54 52 50 52 54 52 54 60 64 80 76 79 82 104 168 188 224 215 201 209 216
267 269 261 253 236 290 144 133 98 63 74 77 75 75 79 77 80 73 62 58 57 58 59 55 52 53 54 55 56 60 62 73 78 88 115 129 159 173 174 184 191 199 202